Location: ??????
(55.4348°N, 39.2112°E)
Time: 06:26:38
(UTC+00:00)

Cosmos 2237 Rocket - Pass Details

Date: 14 April 2024
Orbit: 833 x 851 km, 71.0° (Epoch: 22 May)

Event Time Altitude Azimuth Distance (km) Brightness Sun altitude
Exits shadow 01:29:25 - 216° (SW) 2,794 4.3 -7.5°
Reaches altitude 10° 01:30:18 10° 217° (SW) 2,460 4.1 -7.4°
Maximum altitude 01:35:58 81° 305° (NW) 863 2.3 -6.7°
Drops below altitude 10° 01:41:42 10° 33° (NNE) 2,486 5.7 -6.0°
Sets 01:44:10 0° 35° (NE) 3,427 6.6 -5.6°
